Location: Eurasberg
(48.3353°N, 11.0839°E)
Time: 09:51:44
(UTC+00:00)

Cosmos 1943 Rocket - Pass Details

Date: 18 January 2026
Orbit: 811 x 842 km, 71.0° (Epoch: 17 February)

Event Time Altitude Azimuth Distance (km) Brightness Sun altitude
Exits shadow 04:25:37 27° 198° (SSW) 1,517 3.4 -25.1°
Maximum altitude 04:28:42 79° 115° (ESE) 831 2.1 -24.6°
Drops below altitude 10° 04:34:12 10° 30° (NNE) 2,410 4.9 -23.7°
Sets 04:36:38 0° 29° (NNE) 3,347 5.6 -23.3°
